www.pogodaiklimat.ru

Погода и климат >> Архив погоды >> Мадагаскар >> Махадзанга


ПОГОДА в Махадзанге

  • Прогноз погоды в Махадзанге
  • Монитор погоды в Махадзанге

АРХИВ ПОГОДЫ в Махадзанге

Время (UTC), дата Ветер
(напр.,м/с)
 
Видим.   Явления Облачность Т
(С)
Тd
(С)
f
(%)
Тe
(С)
Тes
(С)
Комфортность P
(гПа)
Po
(гПа)
Тmin
(С)
Tmax
(С)
R
(мм)
R24
(мм)
S
(см)
03 12.08 Ю 2 30 км ясно +19.5 +14.8 74 +22 +22 комфорт 1019.4 1017.3
06 12.08 ЮВ 4 40 км ясно +27.0 +16.6 53 +31 +36 душно 1020.4 1018.3 +19.8 +33.0
09 12.08 СВ 4 40 км 1/1 700 м
[Cu Sc]
+30.7 +14.0 36 +32 +42 жарко 1018.3 1016.2
12 12.08 ЮВ 3 40 км 4/4 700 м
[Cu Sc]
+32.0 +12.5 30 +32 +36 жарко 1016.0 1013.9
15 12.08 СЗ 2 35 км 1/1 1200 м
[Sc]
+26.0 +19.6 68 +32 +32 очень
душно
1016.5 1014.4 +32.5
18 12.08 ЮВ 2 30 км 1/1 1200 м
[Sc]
+26.0 +18.2 62 +31 +31 очень
душно
1018.8 1016.7 +32.5
21 12.08 Ю 4 30 км 1/1 1200 м
[Sc]
+25.0 +13.9 50 +27 +27 жарко 1019.0 1016.9
00 13.08 30 км 1/1 1200 м
[Sc]
+21.9 +13.0 57 1018.5 1016.4
03 13.08 Ю 1 30 км 1/1 1200 м
[Sc]
+19.0 +15.3 79 +21 +21 комфорт 1019.6 1017.5
06 13.08 Ю 5 40 км 1/1 700 м
[Cu hum]
+25.8 +14.6 50 +28 +32 жарко 1021.3 1019.1 +17.6 +32.5
09 13.08 ЮВ 5 40 км 1/1 700 м
[Cu med, cong]
+30.0 +13.8 37 +32 +39 жарко 1019.1 1017.0
12 13.08 Ю 3 40 км 9/6 600 м
[St Ac lent]
+31.7 +18.0 44 +36 +37 очень
душно
1016.2 1014.1
15 13.08 ЮВ 1 40 км 8/6 600 м
[St Ac lent]
+28.0 +20.9 65 +35 +35 очень
душно
1017.2 1015.1 +33.0
18 13.08 ЮВ 4 30 км 1/1 1200 м
[Sc]
+26.2 +18.1 61 +31 +31 очень
душно
1018.6 1016.5 +33.0
21 13.08 ЮВ 4 30 км 3/3 1200 м
[Sc Ac trans]
+24.4 +14.3 53 +27 +27 жарко 1019.2 1017.1
00 14.08 ЮВ 2 30 км 4/3 1200 м
[Sc Ac trans]
+22.5 +14.5 61 +26 +26 жарко 1018.6 1016.5
03 14.08 Ю 3 35 км 1/1 1200 м
[Sc Ac trans]
+21.7 +16.8 74 +26 +26 душно 1019.0 1016.9
06 14.08 ЮВ 7 40 км 1/1 600 м
[Cb calv Ac cuf]
+33.0 +20.5 48 +30 +31 жарко 1020.4 1018.3 +20.5 +33.0
09 14.08 ЮВ 6 40 км 1/1 700 м
[Cu hum]
+31.2 +13.3 34 +32 +38 жарко 1018.9 1016.8
12 14.08 ЮВ 5 40 км 1/1 700 м
[Cu hum]
+33.7 +8.2 21 +32 +36 жарко 1016.5 1014.4
15 14.08 ЮВ 4 30 км 1/1 700 м
[Sc diur, vesp]
+31.2 +10.9 29 +31 +31 жарко 1017.2 1015.1 +33.8
18 14.08 штиль 0 30 км 1/1 1000 м
[St Ac lent]
+24.0 +21.3 85 +30 +30 очень
душно
1019.8 1017.6 +33.8
21 14.08 ЮВ 1 30 км 1/1 1000 м
[Sc]
+21.6 +16.6 73 +25 +25 комфорт 1020.2 1018.1
00 15.08 Ю 2 30 км ясно +20.4 +13.7 65 +23 +23 комфорт 1019.8 1017.6
03 15.08 ЮВ 1 40 км 1/1 1200 м
[Sc Ac trans]
+19.4 +14.8 75 +22 +22 комфорт 1020.1 1018.0
06 15.08 Ю 4 40 км 1/1 1200 м
[Sc Ac trans]
+27.6 +10.8 35 +28 +33 жарко 1020.8 1018.7 +18.8 +33.8
09 15.08 Ю 4 40 км 1/1 700 м
[Cu Sc Ac trans]
+31.6 +12.1 30 +32 +42 жарко 1019.2 1017.0
12 15.08 Ю 5 40 км 8/6 700 м
[Cu Sc Ac trans]
+31.0 +11.6 30 +31 +32 жарко 1016.5 1014.4
15 15.08 СЗ 4 30 км 8/6 700 м
[Cu Sc Ac trans]
+27.0 +21.0 70 +34 +34 очень
душно
1017.4 1015.2 +32.2
18 15.08 Ю 2 30 км 4/4 600 м
[Cu Sc Ac trans]
+25.1 +18.0 65 +29 +29 душно 1019.4 1017.3 +32.2
21 15.08 СВ 2 30 км 1/1 700 м
[Cu Sc Ac trans]
+21.5 +17.7 79 +26 +26 душно 1019.7 1017.5
00 16.08 В 2 30 км 1/1 600 м
[Cu Sc Ac trans]
+20.4 +16.7 79 +24 +24 комфорт 1018.5 1016.4
03 16.08 Ю 3 30 км 1/1 1200 м
[Sc Ac trans]
+20.4 +14.8 70 +23 +23 комфорт 1019.0 1016.9
06 16.08 ЮВ 5 40 км ясно +26.4 +9.7 35 +27 +31 жарко 1020.1 1017.9 +20.4 +32.2
09 16.08 ЮВ 6 40 км ясно +31.1 +7.2 22 +30 +36 жарко 1017.5 1015.4
12 16.08 ЮВ 5 40 км ясно +33.0 +4.8 17 +31 +34 жарко 1014.7 1012.6
15 16.08 С 1 35 км 1/1 1200 м
[Sc]
+29.0 +18.2 52 +34 +34 очень
душно
1015.7 1024.7 +33.2
18 16.08 ЮВ 5 30 км ясно +25.0 +10.8 41 +26 +26 жарко 1017.1 1014.9 +33.2
21 16.08 ЮВ 5 30 км ясно +23.0 +11.4 48 +25 +25 комфорт 1018.2 1016.1
00 17.08 Ю 2 30 км ясно +19.0 +11.2 61 +20 +20 1017.2 1015.1
03 17.08 Ю 1 30 км ясно +19.0 +13.8 72 +21 +21 комфорт 1017.5 1015.3
06 17.08 ЮВ 5 40 км ясно +12.4 +11.1 92 +10 +14 1018.7 1016.5 +18.0 +33.4
09 17.08 ЮВ 4 40 км ясно +29.7 +8.7 27 +29 +41 жарко 1016.5 1014.4
12 17.08 Ю 4 40 км 1/1 600 м
[Cu Sc As op Ci ing]
+31.4 +7.2 22 +30 +35 жарко 1013.5 1011.4
15 17.08 СЗ 3 40 км 1/0
[]
+25.1 +19.4 71 +30 +30 душно 1014.4 1012.3 +32.7
18 17.08 З 3 30 км ясно +24.5 +19.8 75 +30 +30 очень
душно
1016.0 1013.8 +32.7
21 17.08 СЗ 2 30 км ясно +21.0 +18.7 87 +26 +26 душно 1017.2 1015.1
00 18.08 В 2 30 км ясно +20.1 +18.4 90 +24 +24 комфорт 1015.9 1013.7
03 18.08 В 2 35 км ясно +18.5 +16.4 88 +20 +20 1015.8 1013.6
06 18.08 Ю 2 40 км ясно +32.7 +18.3 42 +26 +35 жарко 1016.9 1014.8 +18.3 +32.7
09 18.08 Ю 3 40 км ясно +30.0 +7.6 25 +29 +43 жарко 1015.4 1013.2
12 18.08 Ю 9 40 км ясно +33.0 +8.7 22 +32 +32 жарко 1013.5 1011.4
15 18.08 СЗ 3 30 км ясно +25.6 +21.8 80 +33 +33 очень
душно
1014.1 1011.9 +33.6
18 18.08 Ю 1 30 км ясно +24.3 +21.6 85 +31 +31 очень
душно
1016.9 1014.8 +33.6
21 18.08 Ю 1 30 км ясно +21.0 +19.1 89 +27 +27 душно 1017.4 1015.2
00 19.08 Ю 2 30 км ясно +19.7 +14.0 70 +22 +22 комфорт 1016.5 1014.3

 

Местоположение метеостанции Махадзанга (Мадагаскар): широта -15.66 долгота 46.35 высота над уровнем моря 18 м.

В архиве по умолчанию представлена погода в Махадзанге за последнюю неделю. Архивные данные за месяц целиком и за предыдущие месяцы, начиная с января 2011 года, Вы можете получить, выбрав интересующий диапазон дат из раскрывающегося списка и нажав кнопку "Ввод!".


*Определитесь, кто Вы:
робот инопланетянин человек

Внимание! Время в таблицах - всемирное. Для получения местного времени необходимо прибавить поправку, которая равна 3 ч.

Смотрите также архив погоды в соседних городах и на ближайших метеорологических станциях:

Погода в Анцухихи (Мадагаскар) (195 км)
Погода в Бесалампи (Мадагаскар) (234 км)
Погода в Амбоайтзилаозане (Мадагаскар) (317 км)
Погода в Аэропорту Fascene (Мадагаскар) (337 км)
Погода в Дзаудзи (Коморские Острова) (338 км)
Погода в Мэнтирано (Мадагаскар) (363 км)
Погода в Антананариву (Мадагаскар) (369 км)
Погода в Антананариву (Мадагаскар) (377 км)
Погода на Нуси Бураха (Мадагаскар) (403 км)
Погода на Острове Жуан-ди-Нова (Реюньон) (417 км)

Пояснения к столбцам:

Ветер - указаны скорость ветра в м/с - средняя за 10 мин, порывы в срок и между сроками (в фигурных скобках) и направление, откуда дует ветер: С - северный, СВ - северо-восточный, В - восточный, ЮВ - юго-восточный, Ю - южный, ЮЗ - юго-западный, З - западный, СЗ - северо-западный.
Видимость - горизонтальная дальность видимости в метрах или километрах. При видимости от 1 до 10 км при отсутствии осадков обычно наблюдается дымка, при ухудшении видимости до 1 км и менее - туман. В сухую погоду видимость может ухудшаться дымом, пылью или мглою.
Явления - указаны атмосферные явления, наблюдавшиеся в срок или в последний час перед сроком; фигурными скобками обозначены явления, наблюдавшиеся между сроками (за 1-3 часа до срока); квадратными скобками обозначены град или гололедные отложения с указанием их диаметра в мм.
Облачность - указаны через наклонную черту общая и нижняя облачность в баллах и высота нижней границы облаков в метрах; квадратными скобками обозначены формы облаков: Ci - перистые, Cs - перисто-слоистые, Cc - перисто-кучевые, Ac - высококучевые, As - высокослоистые, Sc - слоисто-кучевые, Ns - слоисто-дождевые, Cu - кучевые, Cb - кучево-дождевые. Подробнее классификацию облаков см. в Атласе облаков (PDF).
T - Температура воздуха - температура, измеренная на высоте 2 м над землей.
Td - Температура точки росы - температура, при понижении до которой содержащийся в воздухе водяной пар достигнет насыщения.
f - Относительная влажность воздуха - влажноcть воздуха, измеренная на высоте 2 м над землей.
Te - Эффективная температура - температура, которую ощущает одетый по сезону человек в тени. Характеристика душности погоды. При расчете учитывается влияние влажности воздуха и скорости ветра на теплоощущения человека.
Tes - Эффективная температура на солнце - температура, которую ощущает человек, с поправкой на солнечный нагрев. Характеристика знойности погоды. Зависит от высоты солнца над горизонтом, облачности и скорости ветра. Ночью, в пасмурную погоду, а также при ветре 12 м/с и более поправка равна нулю.
P - Атмосферное давление - приведенное к уровню моря атмосферное давление.
Po - Атмосферное давление - измеренное на уровне метеостанции атмосферное давление.
Tmin - Минимальная температура - минимум температуры воздуха на высоте 2 м над землей.
Tmax - Максимальная температура - максимум температуры воздуха на высоте 2 м над землей.
R - Количество осадков - Количество выпавших осадков за период времени, мм. При наведении курсора мыши на число - период времени, за который выпало указанное количество осадков.
R24 - Количество осадков - Количество выпавших осадков за 24 часа, мм.
S - Снежный покров - Высота снежного покрова, см. При наведении курсора мыши на число - состояние снежного покрова и степень покрытия местности в баллах.